{"data":{"norad_id":68483,"epoch":"2026-05-24T19:35:25.873152Z","epoch_age_seconds":91092,"freshness":"FRESH","line1":"1 68483U 26067BV  26144.81627168  .00003918  00000+0  38676-3 0  9999","line2":"2 68483  97.7623 103.5169 0003861  33.8545 326.2920 14.92537643  8248","mean_motion":14.92537643,"eccentricity":0.0003861,"inclination_deg":97.7623,"raan_deg":103.5169,"arg_perigee_deg":33.8545,"mean_anomaly_deg":326.292,"bstar":0.00038676,"rev_number":824,"period_min":96.479978696256,"perigee_km":587.33577422771,"apogee_km":592.71658983687,"semimajor_km":6968.1631820323,"source":"CELESTRAK","updated_at":"2026-05-25T13:38:07.870061Z"}}